Location: ??????
(56.0120°N, 39.1740°E)
Time: 07:41:48
(UTC+00:00)

Feng Yun 1-1 Rocket - Pass Details

Date: 14 April 2026
Orbit: 829 x 933 km, 99.0° (Epoch: 9 May)

Event Time Altitude Azimuth Distance (km) Brightness Sun altitude
Rises 17:00:46 0° 157° (SSE) 3,451 6.9 -5.1°
Reaches altitude 10° 17:03:10 10° 157° (SSE) 2,502 6.2 -5.4°
Maximum altitude 17:08:43 83° 71° (ENE) 863 4.3 -6.1°
Drops below altitude 10° 17:14:11 10° 344° (NNW) 2,464 7.3 -6.8°
Sets 17:16:32 0° 344° (NNW) 3,396 8.1 -7.0°
